Change the Weather History Date:

Tuesday, October 25, 2011

  Actual Average Record
Temperature  
Mean Temperature 66 °F -  
Max Temperature 82 °F 75 °F 86 °F (2010)
Min Temperature 50 °F 56 °F 37 °F (2005)
Cooling Degree Days 1    
Growing Degree Days 16 (Base 50)    
Moisture  
Dew Point 51 °F    
Average Humidity 71    
Maximum Humidity 96    
Minimum Humidity 29    
Precipitation  
Precipitation 0.00 in - - ()
Sea Level Pressure  
Sea Level Pressure 30.14 in    
Wind  
Wind Speed 3 mph (NNE)    
Max Wind Speed 12 mph    
Max Gust Speed -    
Visibility 9 miles    
Events      
Averages and records for this station are not official NWS values.
T = Trace of Precipitation, MM = Missing Value Source: NWS Daily Summary

Daily Weather History Graph

Daily Weather History Graph

Search for Another Location

Airport or City:

Trip Planner

Search our weather history database for the weather conditions in past years. The results will help you decide how hot, cold, wet, or windy it might be!

Date:

Astronomy

Oct. 25, 2011 Rise Set
Actual Time 6:57 AM CDT 6:06 PM CDT
Civil Twilight 6:32 AM CDT 6:31 PM CDT
Nautical Twilight 6:04 AM CDT 6:59 PM CDT
Astronomical Twilight 5:36 AM CDT 7:27 PM CDT
Moon 5:31 AM CDT (10/25) 5:07 PM CDT (10/25)
Length of Visible Light 11h 58m
Length of Day
11h 09m
Waning Crescent, 2% of the Moon is Illuminated
Oct 25
Waning Crescent
Oct 26
New
Nov 2
First Quarter
Nov 10
Full
Nov 18
Last Quarter

Hourly Weather History & Observations

Time (CDT) Temp. Dew Point Humidity Pressure Visibility Wind Dir Wind Speed Gust Speed Precip Events Conditions
12:56 AM 54.0 °F 52.0 °F 93% 30.14 in 10.0 mi Calm Calm - N/A   Clear
1:56 AM 54.0 °F 52.0 °F 93% 30.14 in 10.0 mi NNW 3.5 mph - N/A   Clear
2:56 AM 53.1 °F 51.1 °F 93% 30.14 in 10.0 mi North 3.5 mph - N/A   Clear
3:56 AM 50.0 °F 48.9 °F 96% 30.14 in 6.0 mi Calm Calm - N/A   Clear
4:56 AM 52.0 °F 50.0 °F 93% 30.14 in 8.0 mi North 4.6 mph - N/A   Clear
5:56 AM 51.1 °F 50.0 °F 96% 30.15 in 8.0 mi Calm Calm - N/A   Clear
6:05 AM 50.0 °F 48.2 °F 94% 30.20 in 7.0 mi North 3.5 mph - N/A   Clear
6:56 AM 50.0 °F 48.9 °F 96% 30.18 in 6.0 mi North 3.5 mph - N/A   Clear
7:56 AM 57.0 °F 52.0 °F 83% 30.19 in 7.0 mi NNE 8.1 mph - N/A   Clear
8:56 AM 63.0 °F 53.1 °F 70% 30.20 in 10.0 mi ENE 4.6 mph - N/A   Clear
9:56 AM 71.1 °F 53.1 °F 53% 30.21 in 10.0 mi East 5.8 mph - N/A   Clear
10:56 AM 75.9 °F 52.0 °F 43% 30.21 in 10.0 mi East 9.2 mph - N/A   Clear
11:56 AM 78.1 °F 52.0 °F 40% 30.18 in 10.0 mi ENE 8.1 mph - N/A   Clear
12:56 PM 79.0 °F 48.9 °F 35% 30.15 in 10.0 mi Calm Calm - N/A   Clear
1:56 PM 80.1 °F 50.0 °F 35% 30.12 in 10.0 mi Calm Calm - N/A   Clear
2:56 PM 82.0 °F 46.9 °F 29% 30.10 in 10.0 mi East 5.8 mph - N/A   Clear
3:56 PM 79.0 °F 52.0 °F 39% 30.09 in 10.0 mi South 11.5 mph - N/A   Clear
4:56 PM 77.0 °F 50.0 °F 39% 30.09 in 10.0 mi SW 9.2 mph - N/A   Clear
5:56 PM 71.1 °F 52.0 °F 51% 30.10 in 10.0 mi SW 6.9 mph - N/A   Clear
6:56 PM 64.9 °F 52.0 °F 63% 30.09 in 10.0 mi Calm Calm - N/A   Clear
7:56 PM 63.0 °F 53.1 °F 70% 30.10 in 10.0 mi Calm Calm - N/A   Clear
8:56 PM 55.0 °F 52.0 °F 89% 30.11 in 10.0 mi Calm Calm - N/A   Clear
9:56 PM 53.1 °F 51.1 °F 93% 30.12 in 10.0 mi Calm Calm - N/A   Clear
10:56 PM 54.0 °F 51.1 °F 90% 30.12 in 10.0 mi Calm Calm - N/A   Clear
11:56 PM 53.1 °F 51.1 °F 93% 30.11 in 8.0 mi North 3.5 mph - N/A   Clear